Weather History for KLSF - November, 2012

Change the Weather History Date:

Sunday, November 4, 2012

  Actual Average Record
Temperature  
Mean Temperature 62 °F -  
Max Temperature 77 °F 71 °F 84 °F (2000)
Min Temperature 48 °F 44 °F 28 °F (1999)
Degree Days  
Heating Degree Days 2    
Growing Degree Days 12 (Base 50)    
Moisture  
Dew Point 52 °F    
Average Humidity 84    
Maximum Humidity 100    
Minimum Humidity 44    
Precipitation  
Precipitation 0.00 in - - ()
Sea Level Pressure  
Sea Level Pressure 30.03 in    
Wind  
Wind Speed 4 mph (SSW)    
Max Wind Speed 16 mph    
Max Gust Speed 20 mph    
Visibility 9 miles    
Events      
Averages and records for this station are not official NWS values.
T = Trace of Precipitation, MM = Missing Value Source: NWS Daily Summary

Daily Weather History Graph

Daily Weather History Graph

Search for Another Location

Airport or City:

Trip Planner

Search our weather history database for the weather conditions in past years. The results will help you decide how hot, cold, wet, or windy it might be!

Date:

Astronomy

Nov. 04, 2012 Rise Set
Actual Time 6:59 AM EST 5:46 PM EST
Civil Twilight 6:34 AM EST 6:12 PM EST
Nautical Twilight 6:05 AM EST 6:41 PM EST
Astronomical Twilight 5:36 AM EST 7:10 PM EST
Moon 10:26 PM EST 11:39 AM EST
Length of Visible Light 11h 37m
Length of Day
10h 46m
Waning Gibbous, 72% of the Moon is Illuminated
Nov 4
Waning Gibbous
Nov 6
Last Quarter
Nov 13
New
Nov 20
First Quarter
Nov 28
Full

Hourly Weather History & Observations

Time (EST) Temp. Dew Point Humidity Pressure Visibility Wind Dir Wind Speed Gust Speed Precip Events Conditions
12:55 AM 54.0 °F 52.2 °F 94% 30.05 in 10.0 mi Calm Calm - N/A   Clear
1:55 AM 53.2 °F 52.3 °F 97% 30.06 in 10.0 mi SE 4.6 mph - N/A   Clear
1:55 AM 52.0 °F 51.3 °F 97% 30.05 in 10.0 mi SSE 3.5 mph - N/A   Clear
2:55 AM 51.6 °F 50.9 °F 97% 30.05 in 8.0 mi SSE 4.6 mph - N/A   Clear
3:01 AM 51.8 °F 51.8 °F 100% 30.04 in 8.0 mi SSE 3.5 mph - N/A   Clear
3:14 AM 51.8 °F 50.0 °F 94% 30.04 in 7.0 mi SSE 4.6 mph - N/A   Clear
3:42 AM 50.0 °F 50.0 °F 100% 30.04 in 8.0 mi Calm Calm - N/A   Clear
3:54 AM 50.0 °F 50.0 °F 100% 30.04 in 7.0 mi Calm Calm - N/A   Clear
3:55 AM 50.2 °F 49.8 °F 99% 30.04 in 7.0 mi SE 3.5 mph - N/A   Clear
4:18 AM 48.2 °F 48.2 °F 100% 30.04 in 4.0 mi SE 4.6 mph - N/A   Clear
4:22 AM 48.2 °F 48.2 °F 100% 30.04 in 4.0 mi SE 4.6 mph - N/A   Clear
4:37 AM 50.0 °F 50.0 °F 100% 30.04 in 5.0 mi SE 5.8 mph - N/A   Clear
4:47 AM 50.0 °F 50.0 °F 100% 30.04 in 8.0 mi SE 4.6 mph - N/A   Clear
4:55 AM 50.2 °F 49.8 °F 99% 30.04 in 10.0 mi SE 3.5 mph - N/A   Clear
5:12 AM 50.0 °F 48.2 °F 94% 30.04 in 5.0 mi SSE 3.5 mph - N/A   Clear
5:25 AM 48.2 °F 48.2 °F 100% 30.04 in 6.0 mi SSE 3.5 mph - N/A   Clear
5:55 AM 48.7 °F 48.6 °F 99% 30.04 in 10.0 mi SSE 3.5 mph - N/A   Clear
6:55 AM 48.0 °F 47.5 °F 98% 30.05 in 10.0 mi Calm Calm - N/A   Clear
7:55 AM 52.3 °F 52.0 °F 99% 30.06 in 10.0 mi Calm Calm - N/A   Clear
8:55 AM 59.7 °F 57.7 °F 93% 30.07 in 10.0 mi Calm Calm - N/A   Clear
9:55 AM 70.0 °F 58.8 °F 68% 30.06 in 10.0 mi NW 9.2 mph - N/A   Clear
10:55 AM 74.8 °F 56.5 °F 53% 30.05 in 10.0 mi WNW 16.1 mph 19.6 mph N/A   Partly Cloudy
11:55 AM 75.4 °F 56.1 °F 51% 30.04 in 10.0 mi NW 6.9 mph - N/A   Mostly Cloudy
12:55 PM 76.1 °F 55.0 °F 48% 30.01 in 10.0 mi Variable 3.5 mph - N/A   Overcast
1:55 PM 76.8 °F 54.3 °F 46% 29.98 in 10.0 mi WNW 8.1 mph 18.4 mph N/A   Overcast
2:55 PM 77.4 °F 53.8 °F 44% 29.98 in 10.0 mi WNW 12.7 mph - N/A   Clear
3:55 PM 75.7 °F 55.6 °F 49% 29.97 in 10.0 mi West 8.1 mph - N/A   Mostly Cloudy
4:55 PM 72.7 °F 54.5 °F 53% 29.98 in 10.0 mi NW 9.2 mph - N/A   Partly Cloudy
5:55 PM 67.1 °F 54.3 °F 63% 29.99 in 10.0 mi West 3.5 mph - N/A   Mostly Cloudy
6:55 PM 58.3 °F 52.0 °F 80% 30.00 in 10.0 mi Calm Calm - N/A   Partly Cloudy
7:55 PM 58.3 °F 51.1 °F 77% 30.01 in 10.0 mi Calm Calm - N/A   Clear
8:55 PM 54.9 °F 50.7 °F 86% 30.01 in 10.0 mi WNW 3.5 mph - N/A   Clear
9:55 PM 56.5 °F 51.6 °F 84% 30.03 in 10.0 mi NW 8.1 mph - N/A   Scattered Clouds
10:55 PM 54.0 °F 47.7 °F 79% 30.03 in 10.0 mi NW 9.2 mph - N/A   Clear